"Pseudo-MPEC" for C1EUWK5

Created 2026 May 8 7:35:04 UT using Find_Orb

Click here for an explanation of pseudo-MPECs

 
 Astrometry: 
     C1EUWK5*1C2026 04 27.40206814 40 15.956-06 06 10.66   ~4RAo 22.40GVNEOCPV00
     C1EUWK5 1C2026 04 27.41040314 40 15.388-06 06 01.08   ~4RAo 22.14GVNEOCPV00
     C1EUWK5 1C2026 04 27.41598814 40 15.006-06 05 54.64   ~4RAo 23.18GVNEOCPV00
     C1EUWK5 1C2026 04 27.42157714 40 14.678-06 05 48.01   ~4RAo 21.93GVNEOCPV00
     C1EUWK5 1C2026 04 28.30382114 39 18.070-05 48 37.30   ~4S85       VNEOCPV00
     C1EUWK5 1C2026 04 28.30763914 39 17.798-05 48 32.80   ~4S85 22.27GVNEOCPV00
     C1EUWK5 1C2026 04 28.31145914 39 17.520-05 48 28.90   ~4S85       VNEOCPV00
     C1EUWK5 0C2026 05 07.30913014 29 46.460-03 02 14.60   ~579o 22.7 RVNEOCP291
     C1EUWK5 0C2026 05 07.33657014 29 44.670-03 01 46.10   ~579o 22.7 RVNEOCP291
     C1EUWK5 0C2026 05 07.36400014 29 42.860-03 01 17.70   ~579o 22.4 RVNEOCP291

Station data:
(291) LPL/Spacewatch II  (N31.961669 W111.599905)  US/Arizona.  Observers J.
   V. Scotti, R. S. McMillan. 1.8-m f/2.7 reflector + CCD.
(V00) Kitt Peak-Bok  (N31.963125 W111.600190)  US/Arizona. Measurers T.
   Beuden, V. F. Carvajal, D. Fay, J. B. Fazekas, D. C. Fuls, A. R. Gibbs, A.
   D. Grauer, H. Gröller, J. K. Hogan, R. A. Kowalski, S. M. Larson, G. J.
   Leonard, D. Rankin, R. L. Seaman, F. C. Shelly, K. W. Wierzchoś. 2.25-m
   reflector + 4x4K mosaic CCD.

Orbital elements:  C1EUWK5
   Perihelion 2025 Jun 13.769314 +/- 3.2 TT = 18:27:48.7 (JD 2460840.269314)
Epoch 2026 May  7.0 TT = JDT 2461167.5   Earth MOID: 0.6701      AutoNEOCP
M 125.573993324 +/- 1.3             (J2000 ecliptic)
n   0.383747608 +/- 0.00349         Peri.  237.552046 +/- 0.8
a   1.875450449 +/- 0.0114          Node   206.611332 +/- 0.24
e   0.14838448 +/- 0.00679          Incl.   21.872494 +/- 0.57
P   2.568/938.099d         H 20.66  G  0.15   U  9.0
q 1.597162706 +/- 0.00378    Q 2.153738193 +/- 0.0256
From 10 observations 2026 Apr. 27-May 7; mean residual 0".29
Residuals in arcseconds: 
260427 V00  .01+  .21+    260428 V00  .21+  .13+    260507 291  .13+  .03+    
260427 V00  .13-  .00     260428 V00  .00   .19+    260507 291  .74-  .08-    
260427 V00  .24-  .12-    260428 V00  .30-  .36-    
260427 V00  .45+  .06-    260507 291  .63+  .06+    

Ephemerides (geocentric):
Date (UTC) HH   RA             Dec           delta  r     elong  mag " sig PA
---- --------  ------------   ------------  ------ ------ -----  --- --------
2026 05 08 08  14 28 44.244   -02 44 35.20  1.0745 2.0630 163.8 22.9 .499 174
2026 05 08 09  14 28 41.731   -02 43 52.71  1.0746 2.0630 163.8 22.9 .528 174
2026 05 08 10  14 28 39.219   -02 43 10.24  1.0748 2.0631 163.7 22.9 .557 174
2026 05 08 11  14 28 36.709   -02 42 27.82  1.0749 2.0631 163.7 22.9 .586 174
2026 05 08 12  14 28 34.200   -02 41 45.42  1.0751 2.0632 163.6 22.9 .616 174
2026 05 08 13  14 28 31.693   -02 41 03.06  1.0752 2.0632 163.6 22.9 .646 174
2026 05 08 14  14 28 29.187   -02 40 20.73  1.0754 2.0633 163.6 22.9 .677 174
2026 05 08 15  14 28 26.682   -02 39 38.43  1.0756 2.0633 163.5 22.9 .707 174
2026 05 08 16  14 28 24.180   -02 38 56.17  1.0757 2.0634 163.5 22.9 .738 174
2026 05 08 17  14 28 21.678   -02 38 13.94  1.0759 2.0634 163.4 23.0 .769 174
2026 05 08 18  14 28 19.179   -02 37 31.75  1.0760 2.0635 163.4 23.0 .801 174
2026 05 08 19  14 28 16.680   -02 36 49.58  1.0762 2.0635 163.3 23.0 .833 174
2026 05 08 20  14 28 14.184   -02 36 07.46  1.0764 2.0636 163.3 23.0 .865 174
2026 05 08 21  14 28 11.689   -02 35 25.36  1.0765 2.0637 163.3 23.0 .897 174
2026 05 08 22  14 28 09.195   -02 34 43.30  1.0767 2.0637 163.2 23.0 .930 174
2026 05 08 23  14 28 06.703   -02 34 01.27  1.0769 2.0638 163.2 23.0 .963 174
2026 05 09 00  14 28 04.213   -02 33 19.28  1.0770 2.0638 163.1 23.0 1.00 174
2026 05 09 01  14 28 01.724   -02 32 37.32  1.0772 2.0639 163.1 23.0 1.03 174
2026 05 09 02  14 27 59.237   -02 31 55.39  1.0773 2.0639 163.0 23.0 1.06 174
2026 05 09 03  14 27 56.751   -02 31 13.50  1.0775 2.0640 163.0 23.0 1.10 174
2026 05 09 04  14 27 54.267   -02 30 31.64  1.0777 2.0640 162.9 23.0 1.13 174
2026 05 09 05  14 27 51.784   -02 29 49.82  1.0778 2.0641 162.9 23.0 1.17 174
2026 05 09 06  14 27 49.304   -02 29 08.03  1.0780 2.0641 162.8 23.0 1.20 173
2026 05 09 07  14 27 46.824   -02 28 26.27  1.0782 2.0642 162.8 23.0 1.24 173
2026 05 09 08  14 27 44.347   -02 27 44.55  1.0783 2.0642 162.8 23.0 1.27 173
2026 05 09 09  14 27 41.871   -02 27 02.86  1.0785 2.0643 162.7 23.0 1.31 173
2026 05 09 10  14 27 39.396   -02 26 21.21  1.0787 2.0643 162.7 23.0 1.35 173
2026 05 09 11  14 27 36.923   -02 25 39.59  1.0788 2.0644 162.6 23.0 1.38 173
2026 05 09 12  14 27 34.452   -02 24 58.01  1.0790 2.0644 162.6 23.0 1.42 173
2026 05 09 13  14 27 31.983   -02 24 16.46  1.0792 2.0645 162.5 23.0 1.46 173
2026 05 09 14  14 27 29.515   -02 23 34.94  1.0793 2.0645 162.5 23.0 1.50 173
2026 05 09 15  14 27 27.049   -02 22 53.46  1.0795 2.0646 162.4 23.0 1.53 173
2026 05 09 16  14 27 24.584   -02 22 12.01  1.0797 2.0646 162.4 23.0 1.57 173
2026 05 09 17  14 27 22.121   -02 21 30.60  1.0798 2.0647 162.4 23.0 1.61 173
2026 05 09 18  14 27 19.660   -02 20 49.23  1.0800 2.0647 162.3 23.0 1.65 173
2026 05 09 19  14 27 17.201   -02 20 07.88  1.0802 2.0648 162.3 23.0 1.69 172
2026 05 09 20  14 27 14.743   -02 19 26.58  1.0804 2.0648 162.2 23.0 1.73 172
2026 05 09 21  14 27 12.287   -02 18 45.30  1.0805 2.0649 162.2 23.0 1.77 172
2026 05 09 22  14 27 09.832   -02 18 04.07  1.0807 2.0649 162.1 23.0 1.81 172
2026 05 09 23  14 27 07.379   -02 17 22.87  1.0809 2.0650 162.1 23.0 1.85 172
2026 05 10 00  14 27 04.928   -02 16 41.70  1.0811 2.0651 162.0 23.0 1.89 172
2026 05 10 01  14 27 02.479   -02 16 00.57  1.0812 2.0651 162.0 23.0 1.93 172
2026 05 10 02  14 27 00.031   -02 15 19.47  1.0814 2.0652 161.9 23.0 1.97 172
2026 05 10 03  14 26 57.586   -02 14 38.41  1.0816 2.0652 161.9 23.0 2.02 172
2026 05 10 04  14 26 55.141   -02 13 57.38  1.0818 2.0653 161.9 23.0 2.06 172
2026 05 10 05  14 26 52.699   -02 13 16.39  1.0819 2.0653 161.8 23.0 2.10 172
2026 05 10 06  14 26 50.258   -02 12 35.43  1.0821 2.0654 161.8 23.0 2.14 171
2026 05 10 07  14 26 47.819   -02 11 54.51  1.0823 2.0654 161.7 23.0 2.19 171